Weather History for PAIK - January, 2013

Change the Weather History Date:

Thursday, January 3, 2013

  Actual Average (PASK) Record (PASK)
Temperature  
Mean Temperature 24 °F -  
Max Temperature 28 °F 0 °F 33 °F (2005)
Min Temperature 19 °F -12 °F -47 °F (2009)
Degree Days  
Heating Degree Days 42    
Moisture  
Dew Point 20 °F    
Average Humidity 88    
Maximum Humidity 100    
Minimum Humidity 67    
Precipitation  
Precipitation 0.00 in - - ()
Sea Level Pressure  
Sea Level Pressure 29.62 in    
Wind  
Wind Speed 4 mph (East)    
Max Wind Speed 13 mph    
Max Gust Speed 17 mph    
Visibility 10 miles    
Events Snow    
Averages and records for this station are not official NWS values.
T = Trace of Precipitation, MM = Missing Value Source: NWS Daily Summary

Daily Weather History Graph

Daily Weather History Graph

Search for Another Location

Airport or City:

Trip Planner

Search our weather history database for the weather conditions in past years. The results will help you decide how hot, cold, wet, or windy it might be!

Date:

Astronomy

Jan. 03, 2013 Rise Set
Actual Time 12:30 PM AKST 3:02 PM AKST
Civil Twilight 10:43 AM AKST 4:50 PM AKST
Nautical Twilight 9:23 AM AKST 6:10 PM AKST
Astronomical Twilight 8:16 AM AKST 7:17 PM AKST
Moon 12:18 AM AKST 12:01 PM AKST
Length of Visible Light 6h 07m
Length of Day
2h 32m
Waning Gibbous, 64% of the Moon is Illuminated
Jan 3
Waning Gibbous
Jan 4
Last Quarter
Jan 11
New
Jan 18
First Quarter
Jan 26
Full

Hourly Weather History & Observations

Time (AKST) Temp. Windchill Dew Point Humidity Pressure Visibility Wind Dir Wind Speed Gust Speed Precip Events Conditions
12:01 AM 19.0 °F 10.0 °F 16.0 °F 88% 29.57 in 9.0 mi East 6.9 mph - 0.00 in Snow Light Snow
1:01 AM 19.0 °F - 17.1 °F 92% 29.59 in 10.0 mi Calm Calm - 0.00 in   Overcast
1:49 AM 19.4 °F - 17.6 °F 93% 29.47 in 10.0 mi Calm Calm - N/A   Overcast
2:01 AM 19.0 °F 13.9 °F 17.1 °F 92% 29.60 in 10.0 mi East 3.5 mph - N/A   Overcast
3:01 AM 19.4 °F 14.3 °F 17.6 °F 93% 29.48 in 10.0 mi East 3.5 mph - N/A   Overcast
3:30 AM 19.4 °F 14.3 °F 17.6 °F 93% 29.48 in 10.0 mi Variable 3.5 mph - N/A   Overcast
4:01 AM 19.9 °F 12.1 °F 18.0 °F 92% 29.62 in 10.0 mi ESE 5.8 mph - N/A   Overcast
5:01 AM 19.9 °F - 19.0 °F 96% 29.62 in 10.0 mi Calm Calm - N/A   Mostly Cloudy
5:13 AM 19.4 °F 12.8 °F 19.4 °F 100% 29.49 in 10.0 mi Variable 4.6 mph - N/A   Overcast
5:47 AM 21.2 °F 13.6 °F 19.4 °F 93% 29.49 in 10.0 mi Variable 5.8 mph - N/A   Mostly Cloudy
6:01 AM 21.0 °F 11.4 °F 19.9 °F 96% 29.63 in 9.0 mi ESE 8.1 mph - 0.00 in Snow Light Snow
7:01 AM 21.9 °F 13.4 °F 21.0 °F 96% 29.63 in 9.0 mi East 6.9 mph - 0.00 in Snow Light Snow
8:01 AM 23.0 °F 14.7 °F 21.9 °F 96% 29.63 in 9.0 mi ESE 6.9 mph - 0.00 in Snow Light Snow
8:34 AM 23.0 °F 15.8 °F 21.2 °F 93% 29.50 in 10.0 mi East 5.8 mph - 0.00 in   Overcast
9:01 AM 23.0 °F - 21.9 °F 96% 29.64 in 10.0 mi Calm Calm - 0.00 in   Overcast
9:31 AM 24.8 °F - 23.0 °F 93% 29.52 in 10.0 mi Calm Calm - N/A   Overcast
9:39 AM 24.8 °F - 23.0 °F 93% 29.52 in 10.0 mi Calm Calm - N/A   Overcast
9:59 AM 24.8 °F - 23.0 °F 93% 29.52 in 10.0 mi Calm Calm - N/A   Overcast
10:01 AM 24.1 °F - 23.0 °F 96% 29.65 in 10.0 mi Calm Calm - N/A   Overcast
11:01 AM 24.1 °F - 23.0 °F 96% 29.67 in 10.0 mi Calm Calm - N/A   Overcast
12:01 PM 26.1 °F 20.5 °F 24.1 °F 92% 29.67 in 10.0 mi East 4.6 mph - N/A   Overcast
1:01 PM 27.0 °F 19.5 °F 24.1 °F 89% 29.69 in 10.0 mi East 6.9 mph - N/A   Overcast
2:01 PM 28.0 °F 24.2 °F 24.1 °F 85% 29.70 in 10.0 mi West 3.5 mph - N/A   Overcast
3:01 PM 28.0 °F 20.8 °F 23.0 °F 81% 29.70 in 10.0 mi East 6.9 mph - N/A   Overcast
4:01 PM 28.0 °F 20.0 °F 21.9 °F 78% 29.70 in 10.0 mi ENE 8.1 mph - N/A   Overcast
5:01 PM 28.0 °F 17.5 °F 21.0 °F 75% 29.70 in 10.0 mi East 12.7 mph 17.3 mph N/A   Overcast
6:01 PM 28.0 °F 19.3 °F 19.9 °F 72% 29.70 in 10.0 mi East 9.2 mph - N/A   Overcast
7:01 PM 27.0 °F 16.1 °F 19.9 °F 75% 29.71 in 10.0 mi East 12.7 mph 17.3 mph N/A   Clear
8:01 PM 28.0 °F 20.0 °F 19.0 °F 69% 29.71 in 10.0 mi East 8.1 mph - N/A   Overcast
9:01 PM 28.9 °F 21.1 °F 19.0 °F 67% 29.71 in 10.0 mi East 8.1 mph 17.3 mph N/A   Mostly Cloudy
10:01 PM 28.0 °F 20.0 °F 19.0 °F 69% 29.73 in 10.0 mi East 8.1 mph 16.1 mph N/A   Overcast
11:01 PM 28.0 °F - 19.0 °F 69% 29.74 in 10.0 mi Calm Calm - N/A   Mostly Cloudy